This is the latest recevied weather packets stored in our database for station/object WE8L. If no packets are shown the sender has not sent any weather packets the latest 10 day(s).
| Time | Temp. | Humidity | Pressure | Rain* | Wind** | Luminosity | Snow |
|---|---|---|---|---|---|---|---|
| 1777733268 | 9.44° C | 52% | 1021.2 hPa | 0 mm | - | 544 W/m² | - |
| 1777732965 | 9.44° C | 49% | 1020.7 hPa | 0 mm | - | 529 W/m² | - |
| 1777732661 | 9.44° C | 53% | 1020.8 hPa | 0 mm | - | 443 W/m² | - |
| 1777732359 | 9.44° C | 49% | 1020.8 hPa | 0 mm | - | 300 W/m² | - |
| 1777732056 | 8.89° C | 52% | 1020.8 hPa | 0 mm | - | 110 W/m² | - |
| 1777731753 | 8.89° C | 54% | 1021 hPa | 0 mm | - | 279 W/m² | - |
| 1777731450 | 8.33° C | 55% | 1020.9 hPa | 0 mm | - | 108 W/m² | - |
| 1777731148 | 7.78° C | 53% | 1021 hPa | 0 mm | - | 327 W/m² | - |
| 1777730846 | 8.33° C | 55% | 1021.2 hPa | 0 mm | - | 238 W/m² | - |
| 1777730543 | 8.33° C | 59% | 1020.7 hPa | 0 mm | - | 176 W/m² | - |
| 1777730239 | 7.78° C | 59% | 1021 hPa | 0 mm | - | 363 W/m² | - |
| 1777729936 | 7.78° C | 58% | 1021 hPa | 0 mm | - | 97 W/m² | - |
| 1777729632 | 7.78° C | 62% | 1021 hPa | 0 mm | - | 308 W/m² | - |
| 1777729329 | 6.67° C | 65% | 1021 hPa | 0 mm | - | 344 W/m² | - |
| 1777729025 | 6.67° C | 64% | 1020.6 hPa | 0 mm | - | 65 W/m² | - |
| 1777728722 | 6.67° C | 66% | 1020.9 hPa | 0 mm | - | 62 W/m² | - |
| 1777728419 | 7.22° C | 64% | 1021 hPa | 0 mm | - | 67 W/m² | - |
| 1777728116 | 7.22° C | 66% | 1020.9 hPa | 0 mm | - | 319 W/m² | - |
| 1777727813 | 6.67° C | 69% | 1021 hPa | 0 mm | - | 93 W/m² | - |
| 1777727510 | 6.67° C | 69% | 1020.9 hPa | 0 mm | - | 39 W/m² | - |
| 1777727207 | 6.11° C | 68% | 1020.8 hPa | 0 mm | - | 36 W/m² | - |
| 1777726905 | 6.11° C | 69% | 1020.8 hPa | 0 mm | - | 35 W/m² | - |
| 1777726601 | 6.11° C | 69% | 1020.7 hPa | 0 mm | - | 34 W/m² | - |
| 1777726298 | 6.11° C | 68% | 1020.6 hPa | 0 mm | - | 34 W/m² | - |
| 1777725995 | 6.67° C | 67% | 1020.4 hPa | 0 mm | - | 33 W/m² | - |
* Rain latest hour (hover to see other rain measurements)
** Current wind speed in m/s (hover to see current wind gust speed)